Theta_e
320 328 329 327 328 331 330 334 333 325 323 329 328 322 316 316 319 320 319 321 321 321 322 324 327 328 329 327 328 327 325 321 318 316 316 316 315 315 315 314 313 313 312 311
324 326 319 322 326 331 334 331 328 322 320 324 320 318 316 315 315 315 315 315 315 315 314 315 316 318 321 324 324 324 326 324 321 319 317 317 317 316 315 315 313 312 311 310
324 319 317 322 328 327 324 331 329 327 320 319 318 318 317 314 313 312 312 312 312 311 312 312 313 314 314 315 317 321 322 322 322 321 319 318 317 315 314 313 312 313 312 310
319 318 322 324 323 323 326 322 324 323 325 326 317 322 318 314 312 312 311 311 311 312 312 313 313 313 313 313 314 315 317 319 319 320 319 318 317 316 315 315 314 314 312 312
316 319 319 319 318 318 322 320 320 321 320 317 317 325 320 315 312 311 311 312 312 312 312 312 313 312 312 311 312 312 313 314 315 316 317 317 316 316 315 315 314 314 313 312
316 315 314 315 315 316 316 316 315 315 316 324 317 318 319 315 312 310 310 311 311 310 310 311 312 313 312 312 311 311 311 311 312 313 314 315 315 315 315 315 313 313 312 311
316 314 312 311 316 315 316 316 322 324 323 321 315 316 316 312 310 309 309 309 308 308 307 307 308 309 309 310 310 310 310 310 310 311 311 312 312 313 313 313 312 311 312 311
320 319 311 310 313 315 315 315 317 320 320 316 314 315 313 310 308 308 309 308 306 305 305 305 306 307 306 306 306 306 306 306 306 307 308 309 310 310 311 311 311 310 310 310
320 318 309 309 311 311 316 317 313 313 312 312 312 311 310 309 308 307 308 307 306 305 303 303 305 305 305 304 304 303 303 302 302 301 301 301 303 304 307 308 309 309 310 309
310 316 309 310 310 312 314 312 317 315 317 314 309 311 312 310 308 307 307 306 306 304 303 303 304 304 302 300 299 299 299 299 299 298 297 297 298 300 302 304 304 305 307 307
308 312 310 311 313 315 313 315 314 314 315 311 311 307 308 309 309 308 307 307 306 304 303 302 303 301 299 297 297 297 297 297 297 296 297 297 297 296 297 299 300 301 303 304
308 311 313 311 307 305 307 313 312 312 312 313 312 308 308 309 309 308 307 306 305 302 302 301 302 299 297 297 296 296 296 296 296 296 296 296 295 295 296 297 297 297 298 299
308 310 309 308 306 306 308 312 313 312 311 313 312 308 306 308 308 307 306 305 302 301 300 299 300 298 297 296 296 295 295 295 295 295 295 295 295 295 295 295 294 294 294 295
306 308 309 308 308 308 309 309 311 312 313 313 310 309 308 308 308 306 305 302 301 300 299 299 297 296 296 296 295 295 294 294 295 294 294 293 294 294 294 294 293 294 293 294
308 303 305 307 307 307 308 307 310 312 310 309 309 309 308 306 307 306 304 302 301 300 299 298 296 295 296 295 295 294 294 294 293 294 293 293 292 293 293 293 293 293 293 294
307 304 306 302 304 304 304 306 307 309 310 309 307 306 305 304 304 304 303 302 302 300 298 298 296 295 295 296 295 294 293 293 293 292 292 292 291 292 292 292 292 292 293 293
305 302 304 305 300 301 302 304 305 307 306 307 307 306 303 303 303 302 302 300 300 298 297 298 297 296 296 296 295 293 293 293 292 292 291 291 291 291 291 291 291 290 291 291
300 303 307 298 296 301 303 298 301 305 305 305 306 305 304 302 302 301 300 300 299 298 297 297 298 298 297 296 295 293 293 292 292 291 291 291 290 291 290 289 289 289 289 289
301 304 299 296 295 301 300 298 297 300 301 303 306 305 302 301 299 299 299 298 297 296 296 297 297 297 296 296 294 293 292 292 291 291 290 290 290 290 289 289 288 288 288 288
299 303 300 294 296 297 302 298 299 299 297 299 303 304 304 297 300 298 296 295 296 297 298 297 296 295 294 293 293 292 292 292 290 290 290 290 290 290 289 288 287 287 287 287
303 303 300 295 296 299 301 296 298 293 299 299 300 300 299 299 297 296 295 296 297 297 298 297 296 294 293 293 292 292 291 291 290 290 290 289 289 289 288 287 286 286 286 286
305 306 306 301 296 300 296 295 296 297 296 297 298 298 297 296 295 294 294 294 295 295 296 296 294 293 293 292 292 291 291 290 290 289 289 288 288 287 286 286 286 285 285 285
301 301 302 303 302 297 296 296 295 295 294 296 294 294 295 294 294 294 295 294 293 294 294 293 292 292 292 291 291 290 290 290 289 289 288 287 287 286 285 285 285 285 285 285
292 289 296 299 298 300 295 294 295 295 296 297 297 296 294 294 294 294 293 292 291 293 292 292 291 291 290 290 290 290 290 289 288 288 287 286 285 285 285 284 284 284 285 285
293 294 293 294 295 294 292 295 296 295 295 295 294 294 293 293 293 292 291 290 291 291 291 291 291 290 290 290 289 289 288 288 287 286 285 285 284 284 284 284 284 284 284 285
291 294 298 298 296 296 296 294 295 294 294 293 291 290 290 291 291 290 289 290 290 290 290 290 289 289 289 288 288 288 287 286 286 284 284 283 283 283 283 283 283 283 283 284
Wind_Speed
2 3 3 7 7 1 15 9 10 7 5 2 9 8 9 8 2 3 5 4 2 4 4 1 6 13 11 9 9 10 11 11 11 9 7 9 13 15 15 16 16 16 14 12
3 3 5 5 3 5 5 16 6 9 9 6 7 6 7 7 7 6 7 8 8 9 10 18 14 8 4 6 10 11 10 10 13 13 12 13 8 9 15 16 17 17 16 16
6 4 5 1 5 11 5 5 6 6 7 10 3 5 6 7 7 7 8 8 8 8 7 8 14 14 12 9 7 6 10 11 9 12 12 11 14 14 15 18 19 19 19 20
7 8 2 7 6 4 4 7 4 15 7 3 3 2 5 7 8 8 8 8 7 7 7 8 9 12 11 8 5 6 7 8 12 13 12 15 17 17 18 17 19 18 19 19
2 7 10 14 4 4 4 3 5 7 10 9 6 3 5 6 6 7 7 7 8 7 6 6 9 10 9 10 9 5 4 7 10 12 14 16 18 19 21 20 20 21 23 24
8 3 3 4 2 7 10 9 4 3 3 1 3 1 5 5 7 6 6 7 7 7 6 7 7 8 10 13 14 12 10 10 8 9 12 15 19 21 23 23 23 25 26 27
6 5 2 3 3 3 4 4 1 3 2 2 2 1 1 8 9 8 8 7 6 6 5 5 9 13 13 14 14 15 15 15 14 11 12 14 17 20 23 24 23 24 24 24
4 2 7 8 4 3 3 1 2 4 4 3 1 4 4 7 8 7 5 8 6 6 5 7 10 12 13 15 16 17 17 17 17 16 15 16 16 19 21 23 24 26 27 28
4 1 2 3 3 4 3 3 3 5 1 3 4 3 2 4 7 7 7 7 4 5 6 7 10 11 12 13 15 15 16 16 16 16 17 17 17 17 19 22 24 26 28 30
4 5 2 1 2 3 2 1 2 3 3 3 3 3 4 15 14 9 8 7 5 5 6 6 8 9 12 13 13 14 15 16 16 18 19 20 20 21 22 22 25 26 27 29
4 3 2 1 3 3 1 0 3 2 1 4 4 5 7 19 18 13 9 7 5 6 7 5 7 8 8 8 10 12 13 15 18 21 22 23 24 25 25 24 26 27 28 29
1 4 4 1 1 0 2 3 5 3 4 3 0 5 1 13 15 11 9 8 5 7 6 6 9 7 5 4 6 10 13 16 16 18 19 23 26 28 28 30 31 32 32 33
3 1 3 2 1 2 5 5 4 3 2 5 5 5 5 9 10 8 8 8 8 7 6 4 6 4 2 4 7 13 15 16 18 19 21 23 28 28 27 30 33 33 33 34
4 2 2 4 2 3 5 6 6 5 3 3 6 1 2 5 8 8 9 7 8 6 6 4 4 3 0 5 10 14 17 19 18 19 21 26 27 28 30 33 35 37 36 35
3 3 3 5 6 5 2 5 9 13 6 7 4 13 6 9 10 10 7 7 7 4 5 5 5 5 4 7 10 14 18 17 21 22 25 27 29 30 31 31 34 35 37 38
1 1 2 3 5 4 3 8 8 10 9 9 10 9 4 4 6 6 7 6 4 4 5 6 6 8 9 9 12 19 21 23 24 27 28 30 29 30 30 32 34 34 37 38
4 5 2 3 4 6 8 14 16 8 7 11 13 9 6 1 2 6 6 6 7 6 6 6 8 11 12 13 17 20 22 24 26 28 30 31 31 28 28 31 33 34 35 36
5 5 2 1 4 2 6 3 1 18 10 16 10 5 7 7 6 5 6 6 6 6 6 6 8 12 15 18 22 22 23 27 29 30 32 33 32 31 32 32 34 36 32 33
3 4 3 4 3 9 10 7 8 8 9 23 24 14 9 5 4 5 8 6 7 8 9 7 8 12 18 22 23 23 26 28 31 33 34 34 32 32 35 38 36 35 34 34
3 2 4 2 4 8 4 2 3 3 5 10 21 19 15 8 5 7 9 8 9 10 10 12 13 15 18 26 26 23 28 32 32 35 37 35 34 35 38 38 39 37 34 35
4 1 6 5 5 8 9 7 4 6 6 4 10 9 10 10 6 5 7 7 13 12 13 15 17 19 24 27 26 27 32 36 35 35 35 36 37 36 38 38 40 35 34 33
12 12 7 5 4 10 8 5 9 5 2 5 7 8 11 8 8 8 9 8 7 8 12 17 19 22 25 28 27 30 33 37 32 33 34 37 39 39 35 35 39 35 31 31
5 8 6 12 8 5 14 3 7 3 6 5 8 8 11 10 7 7 7 6 6 8 11 16 21 27 26 29 26 28 38 34 34 34 36 41 42 39 36 32 32 32 29 26
4 3 3 2 7 13 11 7 6 6 3 2 3 5 7 6 7 8 4 3 4 12 15 19 22 26 27 28 25 28 35 34 33 36 39 36 32 35 34 30 28 29 29 26
6 11 7 6 8 6 9 12 12 7 5 6 5 6 6 6 6 6 5 5 8 11 16 19 23 25 29 32 30 30 30 30 33 35 33 31 29 29 31 30 29 30 32 29
6 7 9 8 8 7 5 13 16 11 13 15 9 4 5 8 8 6 6 9 9 11 15 19 23 24 30 32 32 35 32 30 33 31 28 28 30 30 30 30 35 29 32 31
Wind_Direction
14 125 125 196 212 215 150 154 152 112 138 61 40 38 26 0 82 337 314 307 163 136 88 112 191 206 211 229 250 244 226 234 237 241 246 239 259 265 264 258 249 247 251 248
99 73 16 333 241 129 125 117 102 74 56 82 89 91 58 52 44 41 36 38 34 29 25 24 22 8 353 267 259 260 264 247 222 236 227 258 262 258 274 273 258 251 251 248
88 17 315 214 114 98 54 125 160 137 103 38 169 103 94 79 71 58 59 56 56 44 42 32 32 30 28 16 5 283 267 259 263 245 236 243 249 259 269 270 270 271 262 254
52 332 39 101 76 17 85 358 108 128 94 147 275 161 153 98 70 63 55 53 57 56 55 57 55 52 41 20 332 283 270 264 249 253 255 254 261 258 273 278 281 283 272 271
101 47 58 61 19 314 138 279 131 168 127 146 193 144 190 121 87 72 64 68 71 75 86 73 66 67 62 54 44 18 310 286 276 265 260 262 270 274 282 286 285 280 273 271
116 182 47 111 3 176 150 147 123 104 138 73 150 130 193 151 142 112 100 89 94 88 79 79 76 65 53 40 35 27 15 2 335 298 280 274 278 283 284 284 284 285 282 277
89 62 2 340 149 168 194 206 85 39 32 162 63 265 125 140 138 133 128 122 113 108 94 66 41 39 35 33 28 22 15 8 358 340 314 301 295 292 290 290 290 287 284 278
77 133 5 330 17 356 33 10 155 155 176 159 221 191 200 138 120 122 133 135 91 67 61 64 61 51 41 31 26 20 15 10 4 356 343 330 318 305 299 294 293 289 287 284
132 61 325 30 344 338 310 44 315 107 88 93 155 74 8 200 172 187 166 138 112 84 75 77 66 51 43 38 34 27 22 18 11 3 355 348 337 319 302 295 291 288 289 290
136 109 217 253 238 47 68 342 102 352 113 182 212 197 233 191 201 200 169 163 165 104 104 91 71 64 60 46 32 24 15 5 358 352 347 342 335 328 321 312 304 297 289 284
164 124 166 204 198 195 53 85 46 80 105 170 185 247 190 189 190 184 160 159 164 107 112 121 112 96 71 44 27 14 3 352 344 343 339 336 334 331 326 319 315 310 304 296
153 120 139 159 159 92 259 245 194 143 223 267 85 271 184 176 167 168 150 183 154 117 121 126 136 123 91 37 13 2 349 339 334 329 324 326 328 330 327 324 322 318 311 307
188 158 101 33 350 196 233 202 262 56 53 205 150 262 359 141 146 141 166 166 125 130 144 127 139 136 85 8 350 343 346 335 323 322 322 320 320 321 318 314 314 313 312 309
350 114 167 171 163 133 199 200 211 174 165 199 227 249 249 176 159 167 209 138 138 151 153 159 159 163 319 330 334 335 328 329 319 313 310 310 311 311 309 315 315 311 311 305
45 128 74 36 19 359 321 206 204 212 190 188 221 226 200 193 193 199 163 148 147 146 167 185 192 204 256 291 309 320 322 321 322 318 313 312 312 309 306 305 308 309 308 306
41 157 90 325 353 16 279 274 241 226 237 254 264 263 275 284 203 159 153 155 182 206 221 213 201 215 246 274 306 319 319 319 320 318 314 316 314 313 310 309 309 309 304 302
119 132 95 264 349 334 303 227 215 209 201 210 231 214 158 140 120 146 162 196 207 212 211 223 222 227 253 275 303 301 306 308 309 310 310 310 311 308 309 309 308 307 303 301
132 106 88 199 11 275 246 255 234 222 226 222 247 178 193 171 180 194 213 209 221 221 210 230 245 238 261 280 292 296 299 302 302 300 304 305 306 304 305 307 308 309 305 300
12 117 117 143 213 295 291 193 172 175 249 218 229 210 185 130 88 253 233 219 219 212 215 224 251 269 278 279 289 293 293 296 297 298 300 303 302 299 302 303 306 305 301 297
333 323 128 140 190 225 260 177 141 154 283 205 204 210 194 130 217 247 209 189 204 205 228 250 267 282 280 285 295 292 286 290 292 300 303 303 299 296 298 299 300 300 296 290
155 146 184 176 233 283 247 164 136 99 237 144 184 182 153 183 188 174 151 178 198 217 236 254 276 273 279 288 286 282 286 281 291 299 298 299 299 294 294 297 297 294 293 290
175 181 191 175 200 268 157 90 172 213 43 157 132 148 154 171 184 164 177 181 194 224 254 269 274 273 278 285 286 278 277 289 293 298 297 297 300 299 294 295 299 295 290 286
213 190 181 191 206 224 197 181 201 178 159 186 150 164 162 174 186 189 199 194 204 241 267 276 278 283 286 289 285 284 289 296 298 300 301 302 304 299 297 293 291 290 287 278
242 211 188 85 234 234 214 241 216 205 172 139 110 146 158 164 176 196 190 217 242 274 277 285 284 283 284 292 290 287 296 300 303 302 300 298 295 296 295 290 284 282 282 283
189 146 168 267 270 309 258 229 233 208 201 226 227 175 180 173 208 203 213 228 241 263 279 283 282 284 288 297 298 300 300 303 299 298 295 296 295 294 295 291 286 284 283 282
186 172 187 222 197 186 229 212 214 198 213 214 189 195 215 188 215 197 214 229 243 265 283 285 289 291 294 302 305 306 310 307 304 299 301 301 300 299 296 296 297 291 288 291